Location: Bégole
(43.1574°N, 0.3291°E)
Time: 02:17:34
(UTC+00:00)

deb Delta 89 - Pass Details

Date: 28 February 2024
Orbit: 714 x 2021 km, 97.5° (Epoch: 13 April)

Event Time Altitude Azimuth Distance (km) Brightness Sun altitude
Rises 02:57:54 0° 10° (N) 5,481 ? -39.6°
Reaches altitude 10° 03:01:13 10° 9° (N) 4,482 ? -39.1°
Enters shadow 03:12:07 71° 302° (WNW) 1,991 ? -37.3°
